Regional Weather Roundup
Issued by NWS Cleveland, OH

Home | Current Version | Previous Version | Text Only | Print | Product List | Glossary Off
Versions: 1 2 3 4 5 6 7 8 9 10 11 12 13 14 15 16 17 18 19 20 21 22 23 24 25 26 27 28 29 30 31 32 33 34 35 36 37 38 39 40 41 42 43 44 45 46 47 48 49 50

577
ASUS41 KCLE 270110
RWRCLE
OHIO REGIONAL WEATHER ROUNDUP
NATIONAL WEATHER SERVICE CLEVELAND, OH
900 PM EDT SAT MAY 26 2018

NOTE: "FAIR" INDICATES FEW OR NO CLOUDS BELOW 12,000 FEET WITH NO
SIGNIFICANT WEATHER AND/OR OBSTRUCTIONS TO VISIBILITY.

OHZ001>008-015>018-024>027-034-035-043-044-270200-
   NORTHWEST OHIO

CITY           SKY/WX    TMP DP  RH WIND       PRES   REMARKS
DEFIANCE       FAIR      74  66  76 CALM      29.79R
FINDLAY        MOCLDY    75  69  81 SE7       29.80R
TOLEDO EXPRESS FAIR      74  71  91 SE3       29.79R
TOLEDO EXEC    FAIR      75  67  76 SE7       29.80R
LIMA           FAIR      73  69  87 SE6       29.81R
$$

OHZ009>014-019>023-028>033-038-089-270200-
   NORTHEAST OHIO

CITY           SKY/WX    TMP DP  RH WIND       PRES   REMARKS
CLE-HOPKINS    MOCLDY    72  68  87 S9        29.84R
CLE-LAKEFRONT  CLOUDY    72  66  81 S7        29.81R
CUY CO. ARPT   MOCLDY    75  70  83 S10       29.84R
LORAIN-ELYRIA  MOCLDY    68  60  75 S9        29.84R
ASHTABULA      FAIR      72  67  84 SE3       29.85R
AKRON-CANTON   TSTM      70  66  87 SE9       29.87S FOG
WOOSTER        LGT RAIN  66  64  93 SW6       29.88R
MANSFIELD      CLOUDY    68  66  93 SE9       29.86R
YOUNGSTOWN     LGT RAIN  71  67  87 S5        29.87R
$$

OHZ042-051>053-060>062-070>072-077>081-270200-
  SOUTHWEST OHIO

CITY           SKY/WX    TMP DP  RH WIND       PRES   REMARKS
CINC-COVINGTON MOCLDY    73  66  78 S8        29.83R
CINC-LUNKEN    FAIR      75  69  81 S7        29.83R
HAMILTON       FAIR      78  72  81 VRB3      29.82R
DAYTON         MOCLDY    70  70 100 SE5       29.84R
WRIGHT-PAT AFB MOCLDY    71  69  90 CALM      29.83R
DAYTON GENERAL FAIR      72  64  76 S7        29.82R
WILMINGTON     MOCLDY    73  69  87 W9G25     29.84R
$$

OHZ036-037-039>041-045>050-054>059-063>069-073>076-082>088-270200-
  CENTRAL AND SOUTHEAST OHIO

CITY           SKY/WX    TMP DP  RH WIND       PRES   REMARKS
COLUMBUS       CLOUDY    71  69  93 E5        29.83R
OSU AIRPORT    CLOUDY    70  69  97 E5        29.83R
BOLTON FIELD   CLOUDY    69  69  98 SE5       29.84R
RICKENBACK AFB MOCLDY    70  70 100 MISG      29.83S
NEWARK         FAIR      69  67  93 CALM      29.84R
MARION         FAIR      72  68  87 SE6       29.84R
LANCASTER      FAIR      70  69  97 S6        29.86R
ZANESVILLE     TSTM      69  66  90 CALM      29.86R
NEW PHILLY     NOT AVBL
$$




USA.gov is the U.S. government's official web portal to all federal, state and local government web resources and services.